Regional Weather Roundup
Issued by NWS Spokane, WA

Home | Current Version | Previous Version | Text Only | Print | Product List | Glossary On
Versions: 1 2 3 4 5 6 7 8 9 10 11 12 13 14 15 16 17 18 19 20 21 22 23 24 25 26 27 28 29 30 31 32 33 34 35 36 37 38 39 40 41 42 43 44 45 46 47 48 49 50
000
NZUS01 KOTX 231410
RWROTX
EASTERN WASHINGTON/NORTHERN IDAHO ROUNDUP
NATIONAL WEATHER SERVICE, SPOKANE WA
700 AM PDT SAT MAY 23 2015

Note: "fair" indicated few or no clouds below 12,000 feet with no
significant weather and/or obstructions to visibility.

...NORTHEAST WASHINGTON AND NORTHERN IDAHO PANHANDLE...

CITY           SKY/WX    TMP DP  RH WIND       PRES   REMARKS
SPOKANE INTL   PTSUNNY   55  51  86 CALM      29.99S
SPOKANE DOWNTO MOSUNNY   59  51  75 SW3       30.00R
COEUR D ALENE  MOSUNNY   55  48  76 CALM      29.99S
DEER PARK      SUNNY     57  49  74 CALM      30.00R
SANDPOINT      SUNNY     63  37  39 NE8       29.99R
BONNERS FERRY  FAIR      57  39  51 CALM      30.03R

...SOUTHEAST WASHINGTON AND SOUTHERN IDAHO PANHANDLE...

CITY           SKY/WX    TMP DP  RH WIND       PRES   REMARKS
WALLA WALLA    PTSUNNY   58  50  75 S15       30.01R
PULLMAN/MOSCOW MOSUNNY   53  50  89 N5        30.02R
LEWISTON       MOSUNNY   59  53  80 S5        29.98R
LOWELL           N/A     53  50  89 CALM      30.00R

...COLUMBIA BASIN...

CITY           SKY/WX    TMP DP  RH WIND       PRES   REMARKS
EPHRATA        PTSUNNY   64  57  78 NE3       29.96R
MOSES LAKE     PTSUNNY   60  54  80 SE7       29.97R
TRI CITIES     PTSUNNY   60  52  74 SW12      29.98R
HERMISTON      CLOUDY    57  49  74 SW9       30.00R
PENDLETON      CLOUDY    54  52  93 S3        30.02R

...EAST SLOPES CASCADES...

CITY           SKY/WX    TMP DP  RH WIND       PRES   REMARKS
THE DALLES     PTSUNNY   59  45  59 W16G30    30.05R
YAKIMA         PTSUNNY   62  52  69 VRB3      29.98R
ELLENSBURG     CLOUDY    57  50  77 NW21G29   29.98S
WENATCHEE      CLOUDY    65  47  52 NW17      29.97R
OMAK           MOSUNNY   64  46  52 N7        29.98R

...SOUTHERN BRITISH COLUMBIA...

CITY           SKY/WX    TMP DP  RH WIND       PRES   REMARKS
PENTICTON      MOSUNNY   64  46  52 N5        30.01R
CASTLEGAR      PTSUNNY   54  41  62 VRB2      30.04R
CRANBROOK      MOSUNNY   55  34  44 W9        30.09R

...WESTERN MONTANA...

CITY           SKY/WX    TMP DP  RH WIND       PRES   REMARKS
MISSOULA       PTSUNNY   53  41  63 NW6       30.02R

...NEIGHBORING CITIES...

CITY           SKY/WX    TMP DP  RH WIND       PRES   REMARKS
SEATTLE        LGT RAIN  53  50  89 SW6       30.15R
CALGARY        MOSUNNY   52  30  43 CALM      30.15R



USA.gov is the U.S. government's official web portal to all federal, state and local government web resources and services.